Weather History for Kyiv, Ukraine

Change the Weather History Date:

Monday, September 2, 2013

  Actual Average Record
Temperature  
Mean Temperature 60 °F -  
Max Temperature 66 °F - - ()
Min Temperature 53 °F - - ()
Degree Days  
Heating Degree Days 6    
Growing Degree Days 10 (Base 50)    
Moisture  
Dew Point 51 °F    
Average Humidity 74    
Maximum Humidity 100    
Minimum Humidity 39    
Precipitation  
Precipitation 0.00 in 0.06 in - ()
Sea Level Pressure  
Sea Level Pressure 29.93 in    
Wind  
Wind Speed 8 mph ()    
Max Wind Speed 16 mph    
Max Gust Speed -    
Visibility 6.9 miles    
Events Rain    
T = Trace of Precipitation, MM = Missing Value Source: Averaged Metar Reports

Daily Weather History Graph

Daily Weather History Graph

Search for Another Location

Airport:

Trip Planner

Search our weather history database for the weather conditions in past years. The results will help you decide how hot, cold, wet, or windy it might be!

Date:

Astronomy

Sep. 02, 2013 Rise Set
Actual Time 6:14 AM EEST 7:40 PM EEST
Civil Twilight 5:40 AM EEST 8:14 PM EEST
Nautical Twilight 4:58 AM EEST 8:55 PM EEST
Astronomical Twilight 4:13 AM EEST 9:40 PM EEST
Moon 3:00 AM EEST (9/2) 5:51 PM EEST (9/2)
Length of Visible Light 14h 34m
Length of Day
13h 26m
Waning Crescent, 9% of the Moon is Illuminated
Sep 2
Waning Crescent
Sep 5
New
Sep 12
First Quarter
Sep 19
Full
Sep 27
Last Quarter

Hourly Weather History & Observations

Time (EEST) Temp. Dew Point Humidity Pressure Visibility Wind Dir Wind Speed Gust Speed Precip Events Conditions
12:00 AM 61 °F 56 °F 79% 29.93 in 12 mi West 6.7 mph - -   Partly Cloudy
12:00 AM 59.0 °F 57.2 °F 94% 29.92 in - West 6.7 mph - N/A   Clear
12:30 AM 59.0 °F 55.4 °F 88% 29.95 in - West 8.9 mph - N/A   Clear
1:00 AM 59.0 °F 57.2 °F 94% 29.95 in 5.6 mi West 6.7 mph - N/A   Unknown
1:30 AM 57.2 °F 55.4 °F 94% 29.92 in 5.0 mi West 6.7 mph - N/A   Unknown
2:00 AM 59.0 °F 57.2 °F 94% 29.92 in 5.0 mi West 6.7 mph - N/A   Unknown
2:30 AM 59.0 °F 57.2 °F 94% 29.92 in 5.0 mi West 8.9 mph - N/A   Unknown
3:00 AM 59 °F 56 °F 85% 29.94 in 12 mi West 6.7 mph - -   Mostly Cloudy
3:00 AM 59.0 °F 57.2 °F 94% 29.92 in 5.6 mi West 8.9 mph - N/A   Mostly Cloudy
3:30 AM 59.0 °F 57.2 °F 94% 29.92 in 5.0 mi West 11.2 mph - N/A   Mostly Cloudy
4:00 AM 59.0 °F 57.2 °F 94% 29.92 in 5.6 mi West 11.2 mph - N/A   Mostly Cloudy
4:30 AM 59.0 °F 57.2 °F 94% 29.92 in 5.6 mi West 11.2 mph - N/A   Mostly Cloudy
5:00 AM 59.0 °F 57.2 °F 94% 29.92 in 3.7 mi West 8.9 mph - N/A Rain Light Rain
5:30 AM 59.0 °F 57.2 °F 94% 29.92 in 3.1 mi West 8.9 mph - N/A Rain Light Rain Showers
6:00 AM 58 °F 57 °F 94% 29.93 in 12 mi WNW 4.5 mph - - Rain Light Rain
6:00 AM 57.2 °F 57.2 °F 100% 29.92 in 5.0 mi West 11.2 mph - N/A Rain Light Rain Showers
6:30 AM 57.2 °F 57.2 °F 100% 29.92 in 6.2 mi WNW 11.2 mph - N/A Rain Light Rain Showers
7:00 AM 57.2 °F 55.4 °F 94% 29.92 in 6.2 mi WNW 11.2 mph - N/A Rain Light Rain
7:30 AM 57.2 °F 55.4 °F 94% 29.95 in 6.2 mi WNW 13.4 mph - N/A   Mostly Cloudy
8:00 AM 57.2 °F 53.6 °F 88% 29.95 in 6.2 mi WNW 11.2 mph - N/A   Mostly Cloudy
8:30 AM 57.2 °F 55.4 °F 94% 29.95 in 6.2 mi WNW 11.2 mph - N/A   Mostly Cloudy
9:00 AM 57.2 °F 55.4 °F 94% 29.95 in 6.2 mi WNW 11.2 mph - N/A   Mostly Cloudy
9:30 AM 57.2 °F 53.6 °F 88% 29.95 in 6.2 mi WNW 8.9 mph - N/A   Mostly Cloudy
10:00 AM 59.0 °F 53.6 °F 82% 29.98 in 6.2 mi WNW 8.9 mph - N/A   Mostly Cloudy
10:30 AM 59.0 °F 53.6 °F 82% 29.98 in 6.2 mi WNW 8.9 mph - N/A   Mostly Cloudy
11:00 AM 60.8 °F 53.6 °F 77% 29.98 in 6.2 mi West 8.9 mph - N/A   Mostly Cloudy
11:30 AM 60.8 °F 53.6 °F 77% 29.98 in 6.2 mi WNW 11.2 mph - N/A   Mostly Cloudy
12:00 PM 62 °F 51 °F 58% 29.97 in 12 mi West 6.7 mph - -   Partly Cloudy
12:00 PM 60.8 °F 51.8 °F 72% 29.98 in 6.2 mi West 11.2 mph - N/A   Mostly Cloudy
12:30 PM 62.6 °F 51.8 °F 68% 29.98 in 6.2 mi West 11.2 mph - N/A   Mostly Cloudy
1:00 PM 64.4 °F 50.0 °F 59% 29.98 in 6.2 mi West 11.2 mph - N/A   Mostly Cloudy
1:30 PM 62.6 °F 46.4 °F 55% 29.98 in 6.2 mi West 11.2 mph - N/A   Mostly Cloudy
2:00 PM 62.6 °F 48.2 °F 59% 29.95 in 6.2 mi West 8.9 mph - N/A   Mostly Cloudy
2:30 PM 62.6 °F 46.4 °F 55% 29.95 in 6.2 mi West 11.2 mph - N/A   Mostly Cloudy
3:00 PM 63 °F 44 °F 39% 29.95 in 12 mi WSW 8.9 mph - -   Mostly Cloudy
3:00 PM 62.6 °F 46.4 °F 55% 29.95 in 6.2 mi West 13.4 mph - N/A   Mostly Cloudy
3:30 PM 64.4 °F 44.6 °F 49% 29.95 in - West 11.2 mph - N/A   Clear
4:00 PM 64.4 °F 46.4 °F 52% 29.95 in - West 11.2 mph - N/A   Clear
4:30 PM 64.4 °F 44.6 °F 49% 29.92 in - West 13.4 mph - N/A   Clear
5:00 PM 62.6 °F 44.6 °F 52% 29.92 in - WNW 11.2 mph - N/A   Clear
5:30 PM 64.4 °F 46.4 °F 52% 29.92 in - West 13.4 mph - N/A   Clear
6:00 PM 64 °F 45 °F 39% 29.91 in 12 mi WSW 4.5 mph - -   Scattered Clouds
6:00 PM 62.6 °F 46.4 °F 55% 29.92 in - West 8.9 mph - N/A   Clear
6:30 PM 62.6 °F 44.6 °F 52% 29.92 in - West 15.7 mph - N/A   Clear
7:00 PM 62.6 °F 44.6 °F 52% 29.92 in - West 11.2 mph - N/A   Clear
7:30 PM 60.8 °F 44.6 °F 55% 29.92 in - West 8.9 mph - N/A   Clear
8:00 PM 59.0 °F 44.6 °F 59% 29.92 in - WSW 8.9 mph - N/A   Clear
8:30 PM 57.2 °F 44.6 °F 63% 29.92 in - WSW 6.7 mph - N/A   Clear
9:00 PM 56 °F 45 °F 56% 29.91 in 12 mi SW 6.7 mph - -  
9:00 PM 55.4 °F 44.6 °F 67% 29.89 in - SW 6.7 mph - N/A   Clear
9:30 PM 53.6 °F 44.6 °F 72% 29.89 in - SW 6.7 mph - N/A   Clear
10:00 PM 53.6 °F 44.6 °F 72% 29.89 in - SW 6.7 mph - N/A   Clear
10:30 PM 53.6 °F 44.6 °F 72% 29.89 in - SW 6.7 mph - N/A   Clear
11:00 PM 53.6 °F 46.4 °F 77% 29.89 in - SW 8.9 mph - N/A   Clear
11:30 PM 55.4 °F 46.4 °F 72% 29.86 in - SW 8.9 mph - N/A   Clear